Private Wetterstation Sandau
Wetterdaten: Woche 03.12.12 - 09.12.12 (KW49)
Datum Zeit Temp. A. Feuchte A. Luftdruck Regen Wind Richtung Taupunkt Windchill
03.12.2012 00:00 0,6 C 93 % 1013,4 hPa 0,0 l/m 6,1 km/h (2 Bft) N-NO -0,4 C -0,9 C
03.12.2012 01:00 0,5 C 93 % 1013,7 hPa 0,0 l/m 5,8 km/h (2 Bft) N-NO -0,5 C -1,0 C
03.12.2012 02:00 0,2 C 90 % 1014,2 hPa 0,0 l/m 6,1 km/h (2 Bft) W-NW -1,2 C -1,4 C
03.12.2012 03:00 -0,1 C 87 % 1014,8 hPa 0,0 l/m 7,3 km/h (2 Bft) N-NW -1,9 C -2,3 C
03.12.2012 04:00 -0,4 C 86 % 1014,9 hPa 0,0 l/m 7,8 km/h (2 Bft) NW -2,5 C -2,9 C
03.12.2012 05:00 -0,8 C 84 % 1015,1 hPa 0,0 l/m 4,1 km/h (1 Bft) N -3,2 C -1,5 C
03.12.2012 06:00 -1,0 C 85 % 1015,3 hPa 0,0 l/m 5,5 km/h (1 Bft) W-NW -3,2 C -2,8 C
03.12.2012 07:00 -1,5 C 84 % 1015,4 hPa 0,0 l/m 3,7 km/h (1 Bft) W-NW -3,7 C -2,5 C
03.12.2012 08:00 -1,1 C 86 % 1015,5 hPa 0,0 l/m 3,6 km/h (1 Bft) W -3,1 C -1,9 C
03.12.2012 09:00 -0,9 C 86 % 1015,1 hPa 0,0 l/m 1,5 km/h (1 Bft) W -2,9 C -1,1 C
03.12.2012 10:00 -0,6 C 86 % 1014,8 hPa 0,5 l/m 4,7 km/h (1 Bft) S-SW -2,6 C -1,4 C
03.12.2012 11:00 0,0 C 87 % 1014,1 hPa 0,5 l/m 6,6 km/h (2 Bft) S-SW -2,0 C -1,8 C
03.12.2012 12:00 0,9 C 87 % 1013,0 hPa 0,0 l/m 5,5 km/h (1 Bft) S -1,0 C -0,6 C
03.12.2012 13:00 1,5 C 86 % 1012,0 hPa 0,0 l/m 6,4 km/h (2 Bft) S-SO -0,5 C -0,2 C
03.12.2012 14:00 1,7 C 85 % 1011,1 hPa 0,0 l/m 7,7 km/h (2 Bft) S-SO -0,5 C -0,5 C
03.12.2012 15:00 0,8 C 87 % 1010,1 hPa 0,0 l/m 5,5 km/h (1 Bft) S-SO -1,2 C -0,5 C
03.12.2012 16:00 0,3 C 88 % 1009,2 hPa 0,0 l/m 6,8 km/h (2 Bft) S-SO -1,5 C -1,5 C
03.12.2012 17:00 0,3 C 88 % 1008,1 hPa 0,0 l/m 6,1 km/h (2 Bft) S -1,5 C -1,7 C
03.12.2012 18:00 0,4 C 88 % 1006,8 hPa 0,0 l/m 6,2 km/h (2 Bft) SW -1,3 C -1,3 C
03.12.2012 19:00 0,7 C 88 % 1005,3 hPa 0,0 l/m 10,2 km/h (2 Bft) SO -1,1 C -2,1 C
03.12.2012 20:00 0,9 C 87 % 1004,1 hPa 0,0 l/m 10,8 km/h (2 Bft) S-SO -1,0 C -2,1 C
03.12.2012 21:00 0,6 C 89 % 1002,9 hPa 0,0 l/m 11,6 km/h (2 Bft) S -1,0 C -2,9 C
03.12.2012 22:00 0,6 C 89 % 1001,7 hPa 0,0 l/m 10,3 km/h (2 Bft) S-SO -1,0 C -2,6 C
03.12.2012 23:00 0,5 C 90 % 1000,3 hPa 0,0 l/m 9,5 km/h (2 Bft) S-SO -1,0 C -2,4 C
04.12.2012 00:00 0,5 C 91 % 999,2 hPa 0,0 l/m 11,0 km/h (2 Bft) S-SO -0,8 C -2,7 C
04.12.2012 01:00 0,7 C 91 % 998,3 hPa 0,0 l/m 12,3 km/h (3 Bft) SW -0,6 C -2,9 C
04.12.2012 02:00 1,0 C 91 % 997,7 hPa 0,0 l/m 11,7 km/h (2 Bft) SW -0,3 C -2,5 C
04.12.2012 03:00 1,2 C 91 % 996,8 hPa 0,0 l/m 10,5 km/h (2 Bft) W-SW 0,0 C -1,7 C
04.12.2012 04:00 1,7 C 92 % 996,3 hPa 0,0 l/m 11,0 km/h (2 Bft) W-SW 0,5 C -1,2 C
04.12.2012 05:00 2,3 C 92 % 995,8 hPa 1,0 l/m 10,8 km/h (2 Bft) W-SW 1,1 C -0,7 C
04.12.2012 06:00 2,5 C 91 % 995,3 hPa 0,0 l/m 10,0 km/h (2 Bft) SW 1,3 C -0,2 C
04.12.2012 07:00 2,9 C 91 % 995,1 hPa 0,0 l/m 10,6 km/h (2 Bft) W-SW 1,5 C 0,1 C
04.12.2012 08:00 3,1 C 90 % 995,1 hPa 0,0 l/m 10,2 km/h (2 Bft) W-SW 1,6 C 0,4 C
04.12.2012 09:00 3,6 C 89 % 994,9 hPa 0,0 l/m 10,2 km/h (2 Bft) W-SW 1,9 C 1,2 C
04.12.2012 10:00 3,9 C 87 % 994,7 hPa 0,0 l/m 11,8 km/h (2 Bft) W-SW 2,0 C 1,0 C
04.12.2012 11:00 3,8 C 87 % 994,6 hPa 0,0 l/m 14,1 km/h (3 Bft) W-SW 1,8 C 0,5 C
04.12.2012 12:00 3,8 C 87 % 994,3 hPa 0,0 l/m 12,3 km/h (3 Bft) W-SW 1,9 C 0,9 C
04.12.2012 13:00 4,3 C 86 % 993,8 hPa 0,0 l/m 14,9 km/h (3 Bft) W-SW 2,2 C 1,1 C
04.12.2012 14:00 4,7 C 85 % 993,2 hPa 0,0 l/m 14,3 km/h (3 Bft) S-SW 2,3 C 1,5 C
04.12.2012 15:00 4,8 C 84 % 992,9 hPa 0,0 l/m 11,8 km/h (2 Bft) W-SW 2,3 C 2,1 C
04.12.2012 16:00 4,7 C 84 % 992,6 hPa 0,0 l/m 12,7 km/h (3 Bft) S-SW 2,1 C 1,8 C
04.12.2012 17:00 4,3 C 84 % 992,1 hPa 0,0 l/m 12,2 km/h (2 Bft) S-SW 1,8 C 1,4 C
04.12.2012 18:00 4,2 C 85 % 991,6 hPa 0,0 l/m 15,7 km/h (3 Bft) W-SW 1,8 C 0,8 C
04.12.2012 19:00 3,7 C 87 % 991,1 hPa 0,5 l/m 13,6 km/h (3 Bft) SW 1,7 C 0,5 C
04.12.2012 20:00 3,5 C 89 % 991,1 hPa 0,5 l/m 11,3 km/h (2 Bft) W 1,9 C 0,6 C
04.12.2012 21:00 3,4 C 91 % 991,5 hPa 0,0 l/m 12,6 km/h (3 Bft) W 2,1 C 0,5 C
04.12.2012 22:00 1,8 C 90 % 992,9 hPa 0,0 l/m 12,6 km/h (3 Bft) N-NO 0,3 C -1,4 C
04.12.2012 23:00 1,3 C 91 % 994,2 hPa 0,0 l/m 8,3 km/h (2 Bft) W-NW -0,0 C -1,0 C
05.12.2012 00:00 1,3 C 91 % 994,8 hPa 0,0 l/m 9,2 km/h (2 Bft) W-NW -0,0 C -1,4 C
05.12.2012 01:00 1,0 C 91 % 995,4 hPa 0,0 l/m 10,5 km/h (2 Bft) W-NW -0,3 C -2,1 C
05.12.2012 02:00 0,7 C 91 % 996,0 hPa 0,0 l/m 9,7 km/h (2 Bft) W-NW -0,6 C -2,2 C
05.12.2012 03:00 0,4 C 91 % 996,5 hPa 0,0 l/m 13,0 km/h (3 Bft) W-NW -0,9 C -3,4 C
05.12.2012 04:00 0,0 C 90 % 996,9 hPa 0,0 l/m 9,1 km/h (2 Bft) W-NW -1,4 C -2,7 C
05.12.2012 05:00 -0,4 C 87 % 997,5 hPa 0,0 l/m 11,7 km/h (2 Bft) NW -2,2 C -4,0 C
05.12.2012 06:00 -1,4 C 85 % 998,3 hPa 0,0 l/m 12,8 km/h (3 Bft) W-NW -3,6 C -5,5 C
05.12.2012 07:00 -2,3 C 85 % 999,2 hPa 0,0 l/m 11,5 km/h (2 Bft) W-NW -4,5 C -6,1 C
05.12.2012 08:00 -3,0 C 85 % 999,9 hPa 0,0 l/m 10,7 km/h (2 Bft) W-NW -5,2 C -7,0 C
05.12.2012 09:00 -3,2 C 83 % 1000,7 hPa 0,0 l/m 11,7 km/h (2 Bft) NW -5,6 C -7,4 C
05.12.2012 10:00 -3,1 C 82 % 1001,4 hPa 0,0 l/m 9,3 km/h (2 Bft) NW -5,8 C -6,3 C
05.12.2012 11:00 -2,8 C 81 % 1001,8 hPa 0,0 l/m 7,3 km/h (2 Bft) NW -5,6 C -5,4 C
05.12.2012 12:00 -1,7 C 75 % 1001,9 hPa 0,0 l/m 11,7 km/h (2 Bft) W-NW -5,6 C -5,6 C
05.12.2012 13:00 -1,2 C 71 % 1002,1 hPa 0,0 l/m 9,4 km/h (2 Bft) W-NW -5,7 C -4,3 C
05.12.2012 14:00 -1,2 C 73 % 1002,4 hPa 0,0 l/m 6,8 km/h (2 Bft) W-SW -5,5 C -3,2 C
05.12.2012 15:00 -1,9 C 76 % 1002,7 hPa 0,0 l/m 5,3 km/h (1 Bft) W-SW -5,5 C -3,4 C
05.12.2012 16:00 -2,1 C 79 % 1003,0 hPa 0,0 l/m 2,4 km/h (1 Bft) W -5,2 C -2,4 C
05.12.2012 17:00 -2,2 C 80 % 1003,1 hPa 0,0 l/m 4,4 km/h (1 Bft) W -5,2 C -3,4 C
05.12.2012 18:00 -3,3 C 81 % 1003,2 hPa 0,0 l/m 1,2 km/h (1 Bft) W-SW -6,1 C -3,3 C
05.12.2012 19:00 -4,1 C 83 % 1003,1 hPa 0,0 l/m 2,2 km/h (1 Bft) S-SO -6,5 C -4,3 C
05.12.2012 20:00 -4,1 C 85 % 1003,0 hPa 0,0 l/m 3,6 km/h (1 Bft) SO -6,2 C -4,7 C
05.12.2012 21:00 -3,7 C 87 % 1002,8 hPa 0,0 l/m 2,7 km/h (1 Bft) S-SO -5,6 C -3,9 C
05.12.2012 22:00 -2,8 C 87 % 1002,6 hPa 0,0 l/m 5,6 km/h (1 Bft) S-SO -4,6 C -4,7 C
05.12.2012 23:00 -2,2 C 88 % 1002,3 hPa 0,0 l/m 7,0 km/h (2 Bft) S-SW -4,0 C -4,7 C
06.12.2012 00:00 -1,8 C 87 % 1001,8 hPa 0,0 l/m 9,0 km/h (2 Bft) S-SW -3,7 C -5,0 C
06.12.2012 01:00 -1,5 C 87 % 1001,5 hPa 0,0 l/m 9,2 km/h (2 Bft) S -3,3 C -4,6 C
06.12.2012 02:00 -1,2 C 88 % 1001,3 hPa 0,0 l/m 5,8 km/h (2 Bft) S-SW -2,9 C -2,9 C
06.12.2012 03:00 -1,3 C 88 % 1001,1 hPa 0,0 l/m 6,5 km/h (2 Bft) S-SW -3,1 C -3,6 C
06.12.2012 04:00 -2,4 C 87 % 1001,1 hPa 0,0 l/m 3,3 km/h (1 Bft) S-SW -4,2 C -3,0 C
06.12.2012 05:00 -2,2 C 89 % 1001,3 hPa 0,0 l/m 2,3 km/h (1 Bft) S-SO -3,8 C -2,5 C
06.12.2012 06:00 -1,6 C 90 % 1001,8 hPa 0,0 l/m 1,9 km/h (1 Bft) O -3,1 C -2,0 C
06.12.2012 07:00 -1,7 C 91 % 1002,9 hPa 0,0 l/m 1,9 km/h (1 Bft) N-NO -2,9 C -1,8 C
06.12.2012 08:00 -1,8 C 91 % 1004,5 hPa 0,0 l/m 8,2 km/h (2 Bft) N-NO -3,0 C -4,5 C
06.12.2012 09:00 -1,6 C 89 % 1006,3 hPa 0,0 l/m 12,7 km/h (3 Bft) N -3,1 C -5,8 C
06.12.2012 10:00 -1,1 C 85 % 1007,9 hPa 0,0 l/m 7,8 km/h (2 Bft) N -3,3 C -3,0 C
06.12.2012 11:00 -0,5 C 83 % 1008,9 hPa 0,0 l/m 11,4 km/h (2 Bft) NW -3,1 C -3,9 C
06.12.2012 12:00 -1,0 C 81 % 1009,8 hPa 0,0 l/m 11,2 km/h (2 Bft) W-NW -3,9 C -4,8 C
06.12.2012 13:00 -1,2 C 81 % 1010,5 hPa 0,0 l/m 12,5 km/h (3 Bft) W-NW -4,0 C -5,1 C
06.12.2012 14:00 -2,0 C 81 % 1011,4 hPa 0,0 l/m 11,2 km/h (2 Bft) W-NW -4,9 C -5,9 C
06.12.2012 15:00 -2,9 C 82 % 1012,4 hPa 0,0 l/m 8,5 km/h (2 Bft) W -5,6 C -6,1 C
06.12.2012 16:00 -3,7 C 81 % 1013,1 hPa 0,0 l/m 8,7 km/h (2 Bft) W -6,5 C -7,0 C
06.12.2012 17:00 -4,5 C 82 % 1013,7 hPa 0,0 l/m 4,3 km/h (1 Bft) W-NW -7,1 C -5,9 C
06.12.2012 18:00 -5,5 C 83 % 1014,1 hPa 0,0 l/m 3,1 km/h (1 Bft) W -7,9 C -6,2 C
06.12.2012 19:00 -5,8 C 85 % 1014,4 hPa 0,0 l/m 4,1 km/h (1 Bft) W -7,9 C -7,2 C
06.12.2012 20:00 -5,5 C 87 % 1014,5 hPa 0,0 l/m 3,3 km/h (1 Bft) SW -7,4 C -6,1 C
06.12.2012 21:00 -6,0 C 87 % 1014,4 hPa 0,0 l/m 2,1 km/h (1 Bft) S -7,7 C -6,1 C
06.12.2012 22:00 -5,6 C 88 % 1014,2 hPa 0,0 l/m 1,8 km/h (1 Bft) S-SW -7,3 C -5,6 C
06.12.2012 23:00 -5,5 C 89 % 1014,1 hPa 0,0 l/m 2,1 km/h (1 Bft) S-SW -7,1 C -5,5 C
07.12.2012 00:00 -5,8 C 89 % 1013,9 hPa 0,0 l/m 4,1 km/h (1 Bft) S-SO -7,3 C -6,5 C
07.12.2012 01:00 -6,2 C 89 % 1013,6 hPa 0,0 l/m 2,7 km/h (1 Bft) S-SO -7,7 C -6,6 C
07.12.2012 02:00 -6,3 C 89 % 1013,3 hPa 0,0 l/m 3,5 km/h (1 Bft) S-SW -7,8 C -7,3 C
07.12.2012 03:00 -6,2 C 90 % 1013,0 hPa 0,0 l/m 2,2 km/h (1 Bft) S -7,6 C -6,2 C
07.12.2012 04:00 -6,5 C 90 % 1012,5 hPa 0,0 l/m 2,0 km/h (1 Bft) S-SO -7,9 C -6,5 C
07.12.2012 05:00 -6,9 C 90 % 1012,0 hPa 0,0 l/m 0,8 km/h (0 Bft) S-SO -8,3 C -6,9 C
07.12.2012 06:00 -7,2 C 89 % 1011,7 hPa 0,0 l/m 1,3 km/h (1 Bft) S-SO -8,7 C -7,4 C
07.12.2012 07:00 -7,4 C 89 % 1011,4 hPa 0,0 l/m 0,2 km/h (0 Bft) N -8,8 C -7,4 C
07.12.2012 08:00 -8,1 C 89 % 1011,3 hPa 0,0 l/m 1,6 km/h (1 Bft) SO -9,6 C -8,1 C
07.12.2012 09:00 -7,8 C 89 % 1011,1 hPa 0,0 l/m 2,5 km/h (1 Bft) O-SO -9,3 C -8,2 C
07.12.2012 10:00 -6,3 C 89 % 1010,8 hPa 0,0 l/m 2,2 km/h (1 Bft) SO -7,9 C -6,6 C
07.12.2012 11:00 -4,7 C 88 % 1010,4 hPa 0,5 l/m 2,9 km/h (1 Bft) SO -6,4 C -4,9 C
07.12.2012 12:00 -3,1 C 86 % 1010,1 hPa 0,0 l/m 3,1 km/h (1 Bft) O-SO -5,2 C -3,7 C
07.12.2012 13:00 -2,3 C 84 % 1009,7 hPa 0,0 l/m 5,8 km/h (1 Bft) O-SO -4,7 C -4,1 C
07.12.2012 14:00 -2,3 C 83 % 1009,6 hPa 0,0 l/m 4,1 km/h (1 Bft) SO -4,8 C -3,2 C
07.12.2012 15:00 -3,5 C 84 % 1009,7 hPa 0,0 l/m 4,0 km/h (1 Bft) SO -5,8 C -4,3 C
07.12.2012 16:00 -4,7 C 86 % 1010,0 hPa 0,0 l/m 4,8 km/h (1 Bft) O-SO -6,6 C -6,0 C
07.12.2012 17:00 -5,6 C 87 % 1010,7 hPa 0,0 l/m 4,9 km/h (1 Bft) O-SO -7,4 C -7,2 C
07.12.2012 18:00 -6,5 C 88 % 1011,7 hPa 0,0 l/m 1,1 km/h (1 Bft) O-SO -8,2 C -6,9 C
07.12.2012 19:00 -7,1 C 88 % 1012,5 hPa 0,0 l/m 1,9 km/h (1 Bft) O-SO -8,8 C -7,1 C
07.12.2012 20:00 -6,9 C 89 % 1013,0 hPa 0,0 l/m 5,1 km/h (1 Bft) O-SO -8,4 C -8,8 C
07.12.2012 21:00 -7,9 C 89 % 1013,7 hPa 0,0 l/m 2,3 km/h (1 Bft) O-SO -9,5 C -8,4 C
07.12.2012 22:00 -9,0 C 89 % 1014,3 hPa 0,0 l/m 2,1 km/h (1 Bft) O-SO -10,5 C -9,5 C
07.12.2012 23:00 -9,0 C 89 % 1015,0 hPa 0,0 l/m 1,1 km/h (1 Bft) SO -10,4 C -9,0 C
08.12.2012 00:00 -8,6 C 89 % 1015,4 hPa 0,0 l/m 1,4 km/h (1 Bft) O-SO -10,0 C -8,6 C
08.12.2012 01:00 -8,7 C 89 % 1015,8 hPa 0,0 l/m 0,8 km/h (0 Bft) SO -10,1 C -8,7 C
08.12.2012 02:00 -9,3 C 89 % 1016,2 hPa 0,0 l/m 0,0 km/h (0 Bft) N -10,8 C -9,3 C
08.12.2012 03:00 -9,9 C 89 % 1016,7 hPa 0,0 l/m 0,0 km/h (0 Bft) N -11,4 C -9,9 C
08.12.2012 04:00 -10,2 C 89 % 1017,3 hPa 0,0 l/m 0,0 km/h (0 Bft) N -11,7 C -10,2 C
08.12.2012 05:00 -10,9 C 88 % 1017,8 hPa 0,0 l/m 0,0 km/h (0 Bft) N -12,5 C -10,9 C
08.12.2012 06:00 -10,9 C 88 % 1018,2 hPa 0,0 l/m 0,0 km/h (0 Bft) N -12,5 C -10,9 C
08.12.2012 07:00 -10,7 C 88 % 1019,1 hPa 0,0 l/m 0,0 km/h (0 Bft) N -12,3 C -10,7 C
08.12.2012 08:00 -10,3 C 88 % 1019,5 hPa 0,0 l/m 0,0 km/h (0 Bft) N -11,8 C -10,3 C
08.12.2012 09:00 -8,1 C 89 % 1019,6 hPa 0,0 l/m 0,0 km/h (0 Bft) N -9,6 C -8,1 C
08.12.2012 10:00 -6,3 C 88 % 1020,4 hPa 0,0 l/m 0,0 km/h (0 Bft) N -7,9 C -6,3 C
08.12.2012 11:00 -5,6 C 86 % 1020,6 hPa 0,0 l/m 0,4 km/h (0 Bft) W -7,5 C -5,6 C
08.12.2012 12:00 -4,6 C 85 % 1020,8 hPa 0,0 l/m 3,0 km/h (1 Bft) W -6,6 C -5,1 C
08.12.2012 13:00 -4,2 C 85 % 1020,9 hPa 0,0 l/m 2,5 km/h (1 Bft) W -6,3 C -4,6 C
08.12.2012 14:00 -3,9 C 85 % 1021,0 hPa 0,0 l/m 0,9 km/h (0 Bft) W -6,0 C -3,9 C
08.12.2012 15:00 -3,8 C 86 % 1021,7 hPa 0,0 l/m 2,5 km/h (1 Bft) W-NW -5,8 C -4,3 C
08.12.2012 16:00 -3,8 C 88 % 1022,1 hPa 0,0 l/m 3,5 km/h (1 Bft) W -5,5 C -4,4 C
08.12.2012 17:00 -3,6 C 89 % 1022,5 hPa 0,0 l/m 2,6 km/h (1 Bft) W-NW -5,2 C -3,9 C
08.12.2012 18:00 -3,4 C 89 % 1022,8 hPa 0,0 l/m 2,1 km/h (1 Bft) W-NW -4,9 C -3,6 C
08.12.2012 19:00 -3,8 C 89 % 1023,1 hPa 0,0 l/m 2,4 km/h (1 Bft) W -5,4 C -4,1 C
08.12.2012 20:00 -3,7 C 90 % 1023,6 hPa 0,0 l/m 4,0 km/h (1 Bft) W -5,2 C -4,6 C
08.12.2012 21:00 -3,3 C 90 % 1023,7 hPa 0,0 l/m 3,2 km/h (1 Bft) W-NW -4,6 C -3,9 C
08.12.2012 22:00 -3,2 C 91 % 1023,4 hPa 0,0 l/m 1,3 km/h (1 Bft) NW -4,4 C -3,2 C
08.12.2012 23:00 -2,9 C 91 % 1023,3 hPa 0,0 l/m 2,4 km/h (1 Bft) W -4,2 C -3,5 C
09.12.2012 00:00 -2,7 C 91 % 1022,9 hPa 0,0 l/m 1,0 km/h (0 Bft) W -3,9 C -2,8 C
09.12.2012 01:00 -2,8 C 91 % 1022,4 hPa 0,0 l/m 1,8 km/h (1 Bft) S-SO -4,0 C -2,8 C
09.12.2012 02:00 -2,5 C 91 % 1022,1 hPa 0,0 l/m 4,0 km/h (1 Bft) S -3,8 C -3,4 C
09.12.2012 03:00 -2,4 C 91 % 1021,2 hPa 0,0 l/m 3,0 km/h (1 Bft) S-SO -3,7 C -2,8 C
09.12.2012 04:00 -2,5 C 91 % 1019,8 hPa 0,0 l/m 6,3 km/h (2 Bft) S-SW -3,8 C -4,6 C
09.12.2012 05:00 -2,6 C 91 % 1018,8 hPa 0,0 l/m 6,3 km/h (2 Bft) SW -3,8 C -4,6 C
09.12.2012 06:00 -2,7 C 91 % 1017,5 hPa 0,0 l/m 7,8 km/h (2 Bft) S-SO -3,9 C -5,4 C
09.12.2012 07:00 -2,7 C 91 % 1016,1 hPa 0,0 l/m 7,7 km/h (2 Bft) SW -4,0 C -5,6 C
09.12.2012 08:00 -2,7 C 91 % 1014,1 hPa 0,0 l/m 11,7 km/h (2 Bft) S-SW -4,0 C -6,7 C
09.12.2012 09:00 -2,4 C 91 % 1012,3 hPa 0,0 l/m 10,4 km/h (2 Bft) S-SO -3,7 C -6,2 C
09.12.2012 10:00 -1,9 C 92 % 1010,5 hPa 0,0 l/m 15,6 km/h (3 Bft) S -3,0 C -6,7 C
09.12.2012 11:00 -1,5 C 92 % 1008,9 hPa 0,0 l/m 14,5 km/h (3 Bft) S -2,6 C -6,0 C
09.12.2012 12:00 -0,9 C 91 % 1007,2 hPa 0,0 l/m 9,8 km/h (2 Bft) S-SW -2,2 C -4,1 C
09.12.2012 13:00 -0,5 C 91 % 1005,9 hPa 0,0 l/m 12,1 km/h (2 Bft) S-SW -1,8 C -4,2 C
09.12.2012 14:00 0,1 C 91 % 1004,9 hPa 0,0 l/m 15,3 km/h (3 Bft) W-SW -1,2 C -4,1 C
09.12.2012 15:00 1,0 C 91 % 1004,3 hPa 0,0 l/m 12,7 km/h (3 Bft) W-SW -0,3 C -2,7 C
09.12.2012 16:00 1,2 C 91 % 1003,9 hPa 0,0 l/m 14,4 km/h (3 Bft) W-SW -0,1 C -2,7 C
09.12.2012 17:00 1,3 C 91 % 1003,4 hPa 0,0 l/m 12,5 km/h (3 Bft) SW -0,0 C -2,2 C
09.12.2012 18:00 1,3 C 91 % 1002,9 hPa 0,0 l/m 10,3 km/h (2 Bft) SW 0,0 C -1,7 C
09.12.2012 19:00 1,7 C 92 % 1002,4 hPa 0,0 l/m 12,8 km/h (3 Bft) S-SW 0,5 C -1,7 C
09.12.2012 20:00 1,7 C 91 % 1002,0 hPa 0,0 l/m 9,6 km/h (2 Bft) SW 0,5 C -1,1 C
09.12.2012 21:00 1,6 C 92 % 1001,8 hPa 0,0 l/m 10,1 km/h (2 Bft) S-SW 0,4 C -1,2 C
09.12.2012 22:00 1,5 C 92 % 1001,3 hPa 0,0 l/m 7,8 km/h (2 Bft) SW 0,4 C -0,7 C
09.12.2012 23:00 1,3 C 92 % 1000,7 hPa 0,0 l/m 6,5 km/h (2 Bft) S 0,1 C -0,5 C
Min-Datum _ 08.12.12 05.12.12 04.12.12 - 03.12.12 - 08.12.12 07.12.12
_ Min-Zeit 05:36 13:26 19:41 - 00:01 - 05:36 22:21
Minimum _ -11,1 C 71 % 991,0 hPa - 0,0 km/h (0 Bft) - -12,7 C -12,8 C
Max-Datum _ 04.12.12 03.12.12 08.12.12 04.12.12 04.12.12 - 04.12.12 04.12.12
_ Max-Zeit 14:51 00:01 21:56 05:21 18:36 - 14:21 16:01
Maximum _ 4,8 C 93 % 1023,9 hPa 1,0 l/m 27,7 km/h
W-SW (4 Bft)
- 2,4 C 3,6 C
Durchschnitt _ -2,1 C 88 % 1008,0 hPa #3,6 l/m 6,6 km/h (2 Bft) W -3,9 C -3,9 C
(c) by David Heller